Flag for Poland Weather past 2 weeks in Radom, Poland

Now
78 °F

Partly sunny.


Feels Like: 79 °F
Forecast: 66 / 91 °F
Wind: 1 mph from West

Location: Kielce

Current Time: Aug 3, 2015 at 10:58:02 AM

Latest Report: Aug 3, 2015 at 10:00 AM


Visibility: 19 mi

Pressure: 30.11 "Hg

Humidity: 44%

Dew point: 55 °F

Location of RadomLocation

Historic Weather in Radom — Graph

°F

Radom temperature yesterday

Maximum temperature yesterday: 81 °F (at 3:00 PM)
Minimum temperature yesterday: 55 °F (at 3:00 AM)
Average temperature yesterday: 70 °F

Past Weeks' High & Low Weather Summary

 TemperatureHumidityPressure
High89 °F (Jul 23, 12:00 PM)98% (Jul 22, 5:00 AM)30.18 "Hg (Jul 22, 5:00 AM)
Low42 °F (Aug 1, 4:00 AM)31% (Jul 30, 4:00 PM)29.64 "Hg (Jul 25, 4:00 PM)
Average67 °F67%29.91 "Hg
* Reported Jul 19 9:00 AM — Aug 3 9:00 AM, Radom, Weather by CustomWeather, © 2015

Note: Actual official high and low records may vary slightly from our data, if they occured in-between our weather recording intervals... More about our weather records

Advertising

Radom weather history for previous 24 hours

 ConditionsComfort  
Time TempWeatherWind HumidityBarometerVisibility
9:00 AM
Mon, Aug 3
72 °FOvercast.1 mph58%30.11 "Hg16 mi
8:00 AM64 °FOvercast.1 mph85%30.13 "Hg11 mi
7:00 AM59 °FOvercast.1 mph92%30.14 "Hg9 mi
4:00 AM56 °FFog.1 mph95%30.14 "Hg5 mi
3:00 AM57 °FPassing clouds.No wind91%30.15 "Hg6 mi
2:00 AM58 °FPassing clouds.2 mph89%30.14 "Hg7 mi
1:00 AM62 °FPassing clouds.1 mph86%30.14 "Hg9 mi
12:00 AM64 °FPassing clouds.1 mph79%30.14 "Hg14 mi
10:00 PM
Sun, Aug 2
67 °FOvercast.1 mph79%30.14 "Hg8 mi
9:00 PM72 °FOvercast.1 mph66%30.12 "Hg18 mi
8:00 PM74 °FOvercast.1 mph61%30.11 "Hg22 mi
7:00 PM76 °FOvercast.2 mph56%30.11 "Hg25 mi
6:00 PM78 °FOvercast.3 mph52%30.11 "Hg25 mi
5:00 PM80 °FOvercast.3 mph45%30.10 "Hg19 mi
4:00 PM80 °FOvercast.3 mph43%30.10 "Hg22 mi
3:00 PM81 °FOvercast.5 mph34%30.09 "Hg22 mi
2:00 PM81 °FOvercast.3 mph34%30.09 "Hg22 mi
1:00 PM80 °FOvercast.3 mph33%30.11 "Hg18 mi
12:00 PM78 °FOvercast.2 mph36%30.12 "Hg25 mi
11:00 AM75 °FPartly sunny.2 mph41%30.13 "Hg15 mi
10:00 AM69 °FPartly sunny.2 mph57%30.14 "Hg19 mi
Weather by CustomWeather, © 2015

See weather overviewHow to use our weather pages